Overblog Suivre ce blog
Editer l'article Administration Créer mon blog
15 octobre 2015 4 15 /10 /octobre /2015 13:03


Résultats de la course des Benjamins

Cat. Class. cat. Place Temps Nom Prénom Club Vitesse
BG1 1 1 00:10:11 SWEENEY Patrick CHAMONIX 14,73
BG1 2 2 00:10:14 BERRUEX Anthonin PASSY 14,66
BG2 1 3 00:10:23 HELT Robin PASSY 14,45
BG2 2 4 00:10:33 PROUVOST Lucas CHAMONIX 14,22
BG1 3 5 00:10:39 REPELLIN Ari PASSY 14,08
BG1 4 6 00:10:42 GENEST Gaspard CHAMONIX 14,02
BG1 5 7 00:10:44 BLANCHET KÉrian MEGEVE 13,98
BG2 3 8 00:10:46 DERVEAUX CÔme SALLANCHES 13,93
BG1 6 9 00:10:48 SIMOND Charlie CHAMONIX 13,89
BG2 4 10 00:10:50 DE LAAGE DE MEUX Gaspard CHAMONIX 13,85
BG1 7 11 00:10:51 WICKRAMASINGHE TÉo MEGEVE 13,82
BG2 5 12 00:10:54 PERRIN Augustin MEGEVE 13,76
BG1 8 13 00:10:55 PINEL Thibault SALLANCHES 13,74
BG1 9 14 00:10:57 GUFFON Tristan CLUSES 13,7
BG2 6 15 00:11:03 MOREL Hugo PASSY 13,57
BG1 10 16 00:11:04 PAULOUIN Gaspard PASSY 13,55
BG2 7 17 00:11:06 OBSCUR Remy PASSY 13,51
BG1 11 18 00:11:08 JOUANNAUD Lionel CHAMONIX 13,47
BG2 8 19 00:11:10 TAPELLA Elliot SALLANCHES 13,43
BG2 9 20 00:11:12 BOITEAU Shanouk MEGEVE 13,39
BG1 12 21 00:11:14 RATTIN  Titouan SCIONZIER 13,35
BG2 10 22 00:11:15 CHERVET Jules PASSY 13,33
BG2 11 23 00:11:17 DEVIANNE LENNARSTON Tristan MEGEVE 13,29
BG2 12 24 00:11:22 DECORPS Edik PASSY 13,2
BG1 13 25   ROUYER Loris CLUSES 0
BG1 14 26 00:11:23 ERKEN Selim PASSY 13,18
BG2 13 27 00:11:38 SAHRAOUI Zinedine SCIONZIER 12,89
BG1 15 28 00:11:42 BAI Titouan PASSY 12,82
BG2 14 29 00:11:43 MOULLIER Lucas CHAMONIX 12,8
BG1 16 30 00:11:45 CRETIER Simon CLUSES 12,77
BG1 17 32 00:11:50 MERCIER NÉo PASSY 12,68
BG2 15 31 00:11:50 PERRIN CÉlian SALLANCHES 12,68
BG2 16 33 00:11:52 LOGGHE Rudy SALLANCHES 12,64
BG2 17 34 00:11:54 FEIGE Killian SALLANCHES 12,61
BG2 18 35 00:11:56 LINDFIELD Harvey PASSY 12,57
BG2 19 36 00:11:59 MORALLI Alexis PASSY 12,52
BG2 20 37 00:12:00 MILHOMME Nicholas CHAMONIX 12,5
BG2 21 38 00:12:01 FONTAINE Noe SCIONZIER 12,48
BG2 22 39 00:12:03 BOUVEROT Zian PASSY 12,45
BG2 23 40 00:12:05 BURNET   Tom CHAMONIX 12,41
BG1 18 41 00:12:06 CHALLAMEL Ivan SALLANCHES 12,4
BG1 19 42 00:12:07 GERARD Malo PASSY 12,38
BG1 20 43 00:12:09 DUPONT ROC Simon MEGEVE 12,35
BG2 24 44 00:12:10 AUDO Lucas PASSY 12,33
BG1 21 45 00:12:12 ZOUAINIA Sami SCIONZIER 12,3
BG2 25 46 00:12:14 MARTINEZ Douglas CHAMONIX 12,26
BG2 26 47 00:12:16 EMONET Jean MEGEVE 12,23
BG2 27 48 00:12:18 BATLE Raphael CHAMONIX 12,2
BG1 22 49 00:12:19 HELIARD Hugo PASSY 12,18
BG1 23 50 00:12:21 AUBRY Lucas SALLANCHES 12,15
BG1 24 51 00:12:22 MULLER Mathias SCIONZIER 12,13
BG1 25 52 00:12:23 WEBER Esteban CHAMONIX 12,11
BG2 28 53 00:12:28 ROES Jules CHAMONIX 12,03
BG1 26 54 00:12:29 MARIN AndrÉa MEGEVE 12,02
BG2 29 55 00:12:33 DUNAND Maxime CHAMONIX 11,95
BG2 30 56 00:12:33 DUPERRAY TimothÉe PASSY 11,95
BG1 27 57 00:12:35 FOURNIER Bastien CLUSES 11,92
BG1 28 58 00:12:37 CHARIOT Mathis SALLANCHES 11,89
BG1 29 59 00:12:38 OUVRIER BUFFET Nans MEGEVE 11,87
BG2 31 60 00:12:39 BEUGIN Robin PASSY 11,86
BG1 30 61 00:12:40 CUSIN ROLLET Antoine MEGEVE 11,84
BG2 32 62 00:12:42 WRZASK Kayan PASSY 11,81
BG2 33 63 00:12:43 IOCHUM Pierre CLUSES 11,8
BG2 34 64 00:12:45 PISSARD GRANTET Antonin MEGEVE 11,76
BG2 35 65 00:12:47 SCHULLER   FÉlix CHAMONIX 11,73
BG1 31 66 00:12:49 MERMOUD Eloi SALLANCHES 11,7
BG2 36 67 00:12:50 HEBETTE AnaËl PASSY 11,69
BG1 32 68 00:12:51 TAPPAZ Sacha MEGEVE 11,67
BG1 33 69 00:12:52 BOCLET Noah MEGEVE 11,66
BG1 34 70 00:12:54 FORTINA Adam PASSY 11,63
BG1 35 71 00:13:00 FONTAINE Lucas PASSY 11,54
BG1 36 72 00:13:03 GLASTRE CÉdric PASSY 11,49
BG2 37 73 00:13:05 KHADRAOUI-FECAMP Maxime CLUSES 11,47
BG1 37 74 00:13:06 CHOISNET Alexin CHAMONIX 11,45
BG1 38 75 00:13:09 ADRION Amaury SALLANCHES 11,41
BG1 39 76 00:13:11 COTET Elliot CHAMONIX 11,38
BG1 40 77 00:13:12 MOINON Tom CHAMONIX 11,36
BG2 38 78 00:13:14 WATTERS Max CHAMONIX 11,34
BG1 41 79 00:13:15 BINET Lilian MEGEVE 11,32
BG2 39 80 00:13:17 PAPARELLE Dario MEGEVE 11,29
BG2 40 81 00:13:18 BORETTI Jordan SALLANCHES 11,28
BG1 42 82 00:13:19 ANDRE Noel SCIONZIER 11,26
BG1 43 83 00:13:23 HENRY Max MEGEVE 11,21
BG1 44 84 00:13:25 PALOC Noah PASSY 11,18
BG2 41 85 00:13:26 BERTHIN Mathis CLUSES 11,17
BG1 45 86 00:13:27 MATHIEU ROSSET Evan MEGEVE 11,15
BG1 46 87 00:13:28 COMTE Arthur CHAMONIX 11,14
BG1 47 88 00:13:30 BERTOLETTI Pablo PASSY 11,11
BG2 42 89 00:13:31 FAILLEAU Thomas CLUSES 11,1
BG2 43 90 00:13:33 DE CARNE   Mateo CHAMONIX 11,07
BG2 44 91 00:13:35 TRANCHART-OTTAVIANI MattÉo SALLANCHES 11,04
BG2 45 92 00:13:44 AUBERT Benjamin CHAMONIX 10,92
BG2 46 93 00:13:45 DELMAS Quentin CHAMONIX 10,91
BG2 47 94 00:13:47 SOUSA Miguel SALLANCHES 10,88
BG1 48 95 00:13:48 AIMONE Jules SALLANCHES 10,87
BG2 48 96 00:13:49 SPRAFICO Iun SALLANCHES 10,86
BG2 49 97 00:13:51 PORRET Maxime SALLANCHES 10,83
BG1 49 98 00:13:53 PRUVOST Melian SALLANCHES 10,8
BG2 50 99 00:13:56 FERREIRA Justin CHAMONIX 10,77
BG2 51 100 00:13:57 WALLNER Paul MEGEVE 10,75
BG1 50 101 00:13:59 BEAULE Erwan CHAMONIX 10,73
BG2 52 102 00:14:01 COLIN Anthony CHAMONIX 10,7
BG2 53 103 00:14:01 SUC Theo CLUSES 10,7
BG2 54 104 00:14:05 PILLARD Alexis PASSY 10,65
BG2 55 105 00:14:06 RIOU Tom CHAMONIX 10,64
BG2 56 106 00:14:07 FAVRICHON Joan PASSY 10,63
BG1 51 107 00:14:09 MAGRO Fausto MEGEVE 10,6
BG2 57 108 00:14:11 PERROT-COUTTET Zian CHAMONIX 10,58
BG1 52 109 00:14:12 NEUFING-MOWLES Isaac CHAMONIX 10,56
BG1 53 110 00:14:14 ADAM  Nino CHAMONIX 10,54
BG1 54 111 00:14:15 DELANNOY Louis MEGEVE 10,53
BG2 58 112 00:14:17 HARDY Thomas CHAMONIX 10,5
BG1 55 113 00:14:18 THODOROFF Lucas CHAMONIX 10,49
BG1 56 114 00:14:19 LEBLOND Camille CHAMONIX 10,48
BG1 57 115 00:14:20 WALDORF Christopher CHAMONIX 10,47
BG1 58 116 00:14:24 LOPES David CHAMONIX 10,42
BG1 59 117 00:14:24 BURBAUD Paulin CLUSES 10,42
BG2 59 118 00:14:26 BERTHIN Theo CLUSES 10,39
BG2 60 119 00:14:27 CORME LÉo MEGEVE 10,38
BG2 61 120 00:14:28 GUILLET Samuel PASSY 10,37
BG1 60 121 00:14:33 GUINOT Theo CHAMONIX 10,31
BG2 62 122 00:14:34 HUART Evan MEGEVE 10,3
BG1 61 123 00:14:36 ROBERT Elouan PASSY 10,27
BG1 62 124 00:14:37 ROUMEGOUX  Tom CHAMONIX 10,26
BG2 63 125 00:14:38 PUTNAM Brig CHAMONIX 10,25
BG1 63 126 00:14:40 LOBRY Benjamin PASSY 10,23
BG2 64 127 00:14:41 BAPTENDIER Lenny MEGEVE 10,22
BG1 64 128 00:14:42 MORAND Rudy MEGEVE 10,2
BG2 65 129 00:14:44 BOCHATAY Hugo PASSY 10,18
BG1 65 130 00:14:45 MONTHOY Pierre PASSY 10,17
BG1 66 131 00:14:46 BOURDIER Gwendal PASSY 10,16
BG2 66 132 00:14:51 DEMIR Ugur PASSY 10,1
BG1 67 133 00:14:52 WHITE Killian SALLANCHES 10,09
BG1 68 134 00:14:54 LEVEQUE Gabriel PASSY 10,07
BG2 67 135 00:14:55 MOSCA Théo PASSY 10,06
BG1 69 136 00:14:58 RONCHAIL Jean-Wen PASSY 10,02
BG1 70 137 00:15:02 KIY Eliot PASSY 9,98
BG1 71 138 00:15:06 MESNIL Thibault PASSY 9,93
BG2 68 139 00:15:07 BETEND Michel CLUSES 9,92
BG1 72 140 00:15:08 REYNAUD Bryce CLUSES 9,91
BG2 69 141 00:15:09 MALNATI Leo CLUSES 9,9
BG2 70 142 00:15:11 FEIGE Titouan MEGEVE 9,88
BG2 71 143 00:15:12 TASTAN EmrÉ PASSY 9,87
BG2 72 144 00:15:14 BOITEUX Tituan CLUSES 9,85
BG2 73 145 00:15:20 PIANFETTI-PICOT Dorian PASSY 9,78
BG2 74 146 00:15:21 SARREAU Elyo PASSY 9,77
BG1 73 147 00:15:23 ROUILLON Yoni SALLANCHES 9,75
BG1 74 148 00:15:27 LISCI Mattéo SALLANCHES 9,71
BG1 75 149 00:15:36 OUVRIER BUFFET LÉo MEGEVE 9,62
BG1 76 150 00:15:38 NEWBERRY Sam CHAMONIX 9,59
BG1 77 151 00:15:53 JACQUET Edgard PASSY 9,44
BG2 75 152 00:15:55 SANROQUE Enzo SALLANCHES 9,42
BG2 76 153 00:16:23 PRANEUF Dylan SALLANCHES 9,16
BG2 77 154 00:16:28 COMBE Enzo SALLANCHES 9,11
BG1 78 155 00:16:30 HENNESSY Dillon CHAMONIX 9,09
BG1 79 156 00:16:32 BAROIN Valentin CHAMONIX 9,07
BG1 80 157 00:16:34 LAUNAY Ilyes CHAMONIX 9,05
BG1 81 158 00:16:55 RAVANEL Hector CHAMONIX 8,87
BG2 78 159 00:17:00 PAYOT Zian CHAMONIX 8,82
BG1 82 160 00:17:03 RETHORE Estebann PASSY 8,8
BG1 83 161 00:17:12 ISAKOVS Aleksandrs CHAMONIX 8,72
BG1 84 162 00:17:21 THENET Kyllian PASSY 8,65
BG1 85 163 00:17:38 COCHEREAU Enzo CHAMONIX 8,51
BG1 86 164 00:17:43 BERRAYANA Adam CHAMONIX 8,47
BG1 87 165 00:17:57 ROUZEAU Mathieu CHAMONIX 8,36
BG2 79 166 00:18:10 BACQUET Axel MEGEVE 8,26
BG2 80 167 00:19:48 PETITTI Arthur PASSY 7,58
BG1 88 168 00:25:37 GIRARD-GUILLEMET Matis PASSY 5,86
BG1 89 169 00:28:06 HERMANT Matteo CLUSES 5,34

 

Partager cet article

Repost 0
Published by c. Tairraz
commenter cet article

commentaires